GFSMW_sfc_rhum_015.txt.gz
RH
31 32 36 37 38 47 46 47 44 47 46 42 40 39 40 38 38 37 43 48 47 54 61 56 60 64 63 60 62 61 65 55 52 49 44 44 48 50 42 41 37 41 41
30 34 36 38 40 40 41 38 35 36 35 35 38 41 42 38 39 42 47 47 50 50 52 59 56 58 59 65 66 66 56 54 53 47 45 44 40 45 46 42 44 46 43
28 30 31 36 38 39 41 35 37 38 41 45 39 41 43 44 39 36 36 39 48 50 53 54 57 59 59 60 63 64 64 55 52 56 44 48 46 40 45 53 43 47 39
28 30 32 37 45 47 52 47 46 43 44 49 47 51 44 42 41 46 43 46 51 52 53 56 58 61 61 64 62 57 64 61 56 57 53 58 52 47 44 43 42 43 37
33 36 44 47 48 53 54 52 47 48 50 53 50 47 49 47 47 47 51 51 50 53 55 57 62 64 62 66 69 66 66 60 57 56 59 55 50 55 46 45 40 38 40
37 38 48 46 47 54 55 54 50 47 50 52 49 53 56 55 52 51 49 46 47 52 59 60 66 68 67 68 69 72 75 72 71 70 75 66 63 60 67 70 71 69 50
50 50 48 46 47 49 52 50 50 49 52 58 52 55 58 59 57 54 50 52 50 52 61 65 69 69 71 72 70 78 85 89 93 94 96 95 97 96 96 98 88 71 49
54 52 50 49 49 52 52 54 52 53 53 59 58 54 57 55 54 53 58 57 55 60 70 69 67 70 72 71 78 89 93 91 94 92 92 95 95 94 94 94 92 75 58
52 49 48 50 52 53 56 61 58 53 56 61 60 56 60 60 58 61 62 58 63 66 70 68 68 73 77 79 80 84 89 89 91 90 87 84 78 79 72 68 64 60 55
47 45 45 50 52 53 55 65 58 55 56 60 57 55 60 58 62 60 60 60 64 68 71 69 60 58 58 63 68 70 72 75 74 70 74 72 70 64 64 64 61 54 50
48 45 46 48 53 57 55 56 59 59 58 60 60 64 63 63 56 55 57 60 67 64 57 50 52 57 61 58 59 59 58 61 59 58 57 56 52 49 49 49 46 45 45
51 50 50 52 56 56 53 55 63 62 65 61 62 67 63 54 53 54 56 57 53 53 55 58 65 64 55 57 61 60 56 53 51 49 50 49 41 53 54 53 55 54 51
52 52 53 56 56 53 56 58 65 67 63 60 67 64 56 53 56 66 69 64 63 64 66 66 70 66 57 47 46 44 45 47 48 53 56 57 57 55 51 51 50 48 42
57 56 58 57 59 60 66 68 66 64 62 68 70 67 65 61 73 75 74 74 71 70 70 75 80 80 58 44 44 47 51 53 54 59 58 56 54 52 50 47 49 47 49
61 65 61 57 57 63 64 61 60 64 69 72 73 74 78 79 82 73 64 64 59 61 70 70 52 51 47 41 56 52 55 56 56 57 53 54 56 64 62 54 54 53 54
71 60 52 50 56 66 62 62 64 70 77 72 70 62 64 60 57 61 62 67 64 50 48 49 52 54 46 70 69 65 53 52 54 56 53 51 60 59 68 73 74 70 65
67 60 52 57 67 61 60 66 66 66 61 61 56 59 60 60 57 51 47 49 51 49 49 50 52 57 54 63 64 66 53 56 57 57 55 51 48 62 58 66 72 76 76
69 56 54 67 62 57 65 62 53 56 57 57 60 61 54 49 50 50 50 50 48 49 50 53 56 52 47 64 66 70 65 68 65 59 57 59 62 64 70 68 69 67 65
64 51 62 64 58 65 66 45 45 48 54 56 50 48 53 51 52 53 52 51 51 52 53 53 54 53 55 64 72 73 76 75 72 64 62 61 64 71 79 81 89 76 64
48 58 62 61 62 65 68 60 51 56 52 50 50 50 53 55 54 54 53 52 53 52 55 56 56 65 72 70 76 73 74 83 72 71 66 72 74 84 91 93 89 87 64
50 58 59 62 62 67 66 60 50 47 48 52 52 51 54 56 55 53 53 52 52 67 80 85 82 76 71 75 74 71 80 79 79 75 69 76 94 91 81 78 82 83 76
55 60 61 62 63 67 60 46 48 47 54 55 52 51 55 56 51 54 53 53 59 74 83 86 82 70 80 72 71 72 77 77 89 85 84 91 89 81 77 77 82 85 88
60 61 62 67 70 68 64 56 59 66 69 56 53 54 56 56 54 56 61 57 59 72 77 70 75 70 68 69 68 78 80 74 88 90 93 90 87 77 71 76 80 83 83
65 63 65 66 73 65 64 64 62 55 54 55 55 56 60 62 60 61 62 59 71 75 73 76 75 72 66 69 70 76 74 75 88 90 88 91 88 74 74 73 74 81 86
68 68 71 73 75 70 71 62 57 59 59 60 61 64 68 68 65 64 63 68 75 78 80 73 74 84 83 78 86 88 89 92 91 93 90 88 83 72 72 73 73 76 76
72 73 70 69 59 60 59 60 62 63 66 66 65 73 73 74 66 60 62 68 78 78 73 72 79 77 74 81 85 87 90 91 92 88 90 92 91 83 77 79 78 77 79

GFSMW_sfc_rhum_018.txt.gz
RH
22 20 25 27 28 39 38 37 37 40 32 30 29 27 28 26 26 26 33 38 36 39 44 39 41 42 44 47 51 48 51 48 43 45 38 34 34 40 33 31 29 30 31
19 24 27 31 34 35 34 31 28 29 27 24 27 31 34 30 32 32 34 33 39 38 36 41 40 41 41 47 50 54 52 50 46 48 43 41 34 32 35 34 32 38 30
22 23 25 31 33 35 34 29 30 32 37 36 29 30 30 31 28 33 31 30 34 35 38 40 43 45 44 42 46 49 52 52 49 50 50 46 43 35 29 41 36 39 38
21 24 28 33 38 41 38 35 34 33 35 39 34 40 34 35 36 34 31 33 36 36 36 40 43 47 44 47 47 43 52 53 54 48 47 51 48 48 49 42 40 38 38
27 30 32 34 37 42 42 40 35 36 37 39 40 36 39 36 35 38 44 40 34 33 33 41 47 50 48 52 60 60 59 55 58 54 59 66 63 54 55 48 50 39 35
30 31 33 32 34 41 42 40 35 34 38 40 42 45 48 50 45 41 38 32 32 31 36 42 49 53 55 58 60 70 74 75 74 77 82 85 87 79 85 76 59 60 52
36 34 33 32 34 37 40 37 36 35 36 41 42 45 44 44 43 41 37 41 36 36 41 50 54 51 58 64 68 72 78 85 92 94 96 95 96 96 97 98 96 96 78
36 34 33 34 35 40 40 41 38 37 34 37 40 39 42 42 41 40 43 44 44 44 50 54 53 55 55 63 71 81 88 89 89 80 84 83 84 82 80 81 89 87 73
37 34 33 34 36 39 41 46 42 38 37 38 43 45 46 49 46 48 48 44 48 43 56 54 55 55 54 56 56 61 56 67 73 74 70 67 69 65 62 58 58 58 50
35 33 32 35 36 37 40 45 41 40 42 44 46 46 49 45 49 47 47 49 49 54 55 58 49 50 52 58 66 63 59 64 66 56 55 53 49 55 57 54 54 49 48
36 36 36 36 37 41 40 40 42 44 44 44 48 49 48 47 45 44 46 49 53 50 49 43 49 62 72 77 72 63 57 53 54 50 48 45 41 37 34 34 34 36 36
33 33 36 38 41 39 37 37 44 42 43 44 44 48 48 46 46 47 47 49 48 47 47 50 60 70 70 63 58 56 45 45 44 43 44 42 29 39 40 38 41 39 37
33 35 38 40 42 39 41 40 41 44 42 39 44 48 50 49 48 51 53 52 53 56 59 73 79 67 64 62 54 47 45 44 43 42 42 42 43 46 43 41 41 38 31
36 40 43 42 39 38 38 43 43 40 41 46 46 51 57 61 79 78 62 61 57 58 60 58 57 55 44 39 38 40 42 44 42 46 47 46 48 48 46 40 41 37 39
44 46 46 45 34 38 46 42 39 41 48 48 47 61 64 62 62 55 49 46 46 44 43 42 42 42 40 32 49 44 45 43 43 44 41 45 49 59 60 49 48 45 43
52 50 45 37 36 44 44 39 40 44 46 45 48 48 48 44 46 46 44 41 39 37 38 39 41 43 34 64 64 61 45 42 40 41 41 41 52 49 66 68 70 67 62
55 48 42 37 43 47 39 40 40 40 44 46 44 45 48 45 42 38 35 37 40 40 41 41 42 46 44 62 64 65 48 46 47 46 44 39 33 52 50 64 70 72 73
44 37 35 38 44 39 36 40 34 37 43 44 44 42 43 42 37 35 36 40 41 42 42 44 46 46 40 60 64 68 58 55 53 48 46 45 50 56 62 59 64 64 63
38 35 33 39 44 37 35 40 41 38 41 46 43 46 43 39 34 36 40 41 42 43 44 45 47 48 48 66 67 69 67 63 61 58 57 59 64 68 74 81 85 69 62
35 34 34 41 43 36 38 42 39 36 40 41 45 43 40 37 37 41 43 43 42 43 46 53 54 62 64 65 69 67 68 83 79 72 66 71 69 78 86 93 87 84 63
36 33 35 41 39 39 43 45 34 32 33 37 43 42 37 36 39 43 43 43 45 55 76 90 78 70 70 65 69 66 76 81 77 72 68 64 89 94 84 82 82 83 79
37 33 36 36 38 39 44 40 33 27 32 39 46 43 38 37 38 44 45 46 49 61 81 94 88 70 86 61 60 65 71 79 89 82 75 90 85 88 80 74 80 80 84
36 36 38 40 39 38 41 44 39 38 44 52 61 46 41 42 43 47 50 51 49 66 78 68 75 68 62 58 62 72 75 73 85 85 85 91 87 86 80 81 79 81 90
41 40 42 41 44 41 48 51 53 56 56 52 64 46 46 49 46 47 48 46 62 76 69 72 70 64 60 62 67 73 74 75 83 84 90 89 91 93 90 78 77 80 81
40 41 40 41 40 42 45 46 49 48 47 50 53 52 55 55 54 51 48 56 63 74 72 67 66 77 80 72 79 84 85 88 86 91 90 85 85 83 74 73 71 74 74
43 41 39 40 39 44 51 47 47 52 56 57 54 57 63 62 60 52 53 70 73 74 72 71 77 75 67 73 76 80 87 89 88 85 87 91 92 88 80 76 78 76 76

GFSMW_sfc_rhum_024.txt.gz
RH
26 29 32 36 39 46 45 46 52 51 48 47 48 50 53 51 49 46 50 52 51 50 60 61 61 64 64 68 67 69 69 68 70 70 64 61 62 61 52 55 56 49 48
28 32 36 41 43 42 41 39 38 44 42 41 45 51 54 51 50 50 48 48 50 52 50 61 60 62 65 67 70 71 71 69 71 74 69 70 62 58 51 50 48 50 44
27 31 36 44 48 48 47 38 40 42 48 53 43 47 49 52 49 51 50 48 58 57 58 62 63 65 66 70 70 68 70 72 71 73 78 76 74 70 62 59 74 77 76
25 28 35 43 50 52 50 43 41 40 42 50 52 58 55 52 54 55 51 48 55 55 50 52 58 64 70 72 72 64 82 80 84 78 72 79 85 94 83 73 65 80 82
30 31 35 40 43 53 54 49 42 39 44 48 54 60 61 59 55 58 59 57 57 55 50 52 60 68 70 72 84 79 80 80 84 86 86 84 81 91 87 93 86 77 77
31 30 31 35 42 54 51 51 44 39 44 46 52 56 60 61 61 61 62 60 55 52 54 50 64 67 72 75 76 76 80 76 80 84 87 91 89 92 94 96 93 95 91
34 33 32 33 36 43 46 46 46 44 45 51 51 55 60 62 61 62 61 60 55 55 55 59 66 74 76 80 81 82 81 81 88 88 92 91 85 88 92 98 96 95 90
34 35 34 36 37 42 45 46 45 45 44 52 60 60 60 59 59 59 57 60 60 61 61 71 73 73 78 79 79 82 84 87 90 85 79 84 81 86 83 82 90 89 80
34 32 33 38 40 41 46 50 47 42 45 52 58 60 61 63 63 60 62 65 63 50 67 70 74 72 76 77 79 78 78 86 88 88 87 87 82 80 76 71 72 84 91
32 32 31 37 39 42 45 53 47 42 45 48 55 48 52 54 59 60 62 62 64 62 64 69 75 73 74 75 76 78 84 85 85 83 88 88 88 88 91 83 79 75 74
33 32 33 38 40 46 47 48 44 41 44 44 50 54 52 52 55 59 63 68 66 63 62 70 80 82 84 79 80 75 73 71 77 76 69 70 65 64 65 64 58 70 80
33 34 37 38 40 43 44 41 45 44 45 44 44 47 50 59 61 61 60 66 70 63 62 64 74 79 79 77 75 72 66 71 70 64 61 58 43 53 57 57 56 60 60
33 34 37 40 39 40 39 38 42 43 40 36 40 45 50 60 61 61 64 64 63 59 56 53 56 55 57 55 52 50 53 56 54 54 55 54 54 58 60 59 59 59 46
33 35 40 41 42 38 35 35 40 43 38 36 40 48 53 58 58 62 63 61 57 54 50 49 49 52 45 41 45 47 59 60 53 56 55 54 54 57 60 59 67 56 62
40 44 48 47 40 34 34 35 40 38 41 38 41 48 52 52 57 61 62 57 53 46 46 46 50 53 44 41 60 58 61 63 60 58 52 52 57 60 63 48 60 63 67
50 48 47 41 34 32 33 36 38 38 40 40 41 40 50 51 57 59 61 56 49 49 51 52 53 55 36 72 66 68 71 63 62 62 58 57 59 54 66 70 74 66 68
54 50 45 38 33 34 30 31 35 36 37 38 36 40 53 50 55 50 49 48 53 53 55 56 56 59 61 67 68 70 69 69 68 66 63 58 47 62 58 68 69 81 77
47 44 38 33 32 28 27 32 32 36 39 41 45 36 53 52 51 54 49 51 54 57 58 60 60 66 54 74 73 74 79 76 72 69 64 64 69 69 70 72 78 80 76
42 35 30 31 31 29 29 29 29 28 29 34 47 61 47 46 54 52 51 53 56 59 60 55 67 71 71 72 76 91 84 82 78 68 69 70 68 68 70 80 87 88 80
30 28 27 26 30 30 31 31 29 28 31 44 49 47 42 44 52 61 59 55 55 53 70 77 77 76 81 79 79 74 95 93 84 76 72 72 72 95 89 96 97 96 90
24 22 23 26 27 29 30 31 28 28 30 38 45 53 64 80 82 80 59 53 60 70 90 96 90 83 80 83 71 81 93 93 86 83 80 77 84 94 89 80 91 90 87
20 19 22 24 26 25 28 27 28 28 36 47 53 56 68 74 70 69 61 61 63 74 87 91 89 85 86 72 68 84 70 69 89 90 88 95 77 89 85 86 90 93 91
21 22 24 27 27 27 27 30 33 38 48 50 56 61 72 77 69 81 66 63 64 85 89 82 84 80 79 78 70 67 66 71 86 91 89 88 94 90 92 91 97 97 96
25 24 26 28 31 28 28 34 44 49 49 58 60 58 62 66 64 61 61 64 85 90 79 81 82 82 78 80 77 78 87 77 82 86 89 95 90 92 96 95 93 94 96
27 28 31 32 33 32 38 42 47 54 62 65 64 68 74 74 74 70 71 79 86 85 89 89 89 94 92 82 68 77 84 87 90 91 96 91 91 94 91 92 92 95 91
29 31 32 34 38 41 48 50 51 59 70 78 74 80 82 84 82 73 70 72 79 71 70 68 87 90 72 66 63 66 68 70 80 92 94 95 95 95 95 95 94 90 93

GFSMW_sfc_rhum_027.txt.gz
RH
43 44 47 50 49 48 44 49 54 58 50 54 55 57 59 57 57 57 50 48 56 58 63 67 63 65 68 73 72 75 78 73 79 86 73 81 75 74 79 76 73 72 57
46 50 58 63 67 54 50 50 49 51 53 56 59 59 61 58 58 62 61 62 61 59 55 69 71 71 74 74 77 77 78 84 82 89 86 77 71 72 69 75 77 87 85
50 49 52 60 61 59 52 49 51 52 55 55 58 59 61 62 63 60 58 60 61 62 60 61 68 70 77 78 78 88 93 97 92 88 93 97 95 84 73 74 88 94 91
45 49 56 61 62 63 59 51 48 49 52 54 61 64 70 68 70 68 65 61 62 58 55 61 66 74 79 78 89 82 91 89 94 90 75 83 86 95 80 82 82 81 81
48 51 56 56 59 59 57 52 50 51 52 59 62 69 64 65 64 67 70 68 65 61 58 57 64 70 81 91 88 87 77 78 78 85 96 94 92 96 98 91 93 84 81
44 48 54 55 60 62 59 57 54 51 56 56 57 61 64 68 71 72 74 71 68 67 64 57 75 85 88 88 83 81 79 82 83 90 94 95 83 87 92 90 95 94 91
47 46 46 52 57 56 58 53 55 53 54 64 65 67 68 66 65 65 65 66 72 71 70 81 84 89 86 82 81 83 90 90 91 92 93 95 95 90 92 94 95 97 95
42 44 44 47 50 52 56 55 52 51 60 65 67 70 66 75 71 64 68 72 68 71 74 79 81 80 81 87 88 94 91 90 93 94 93 88 94 89 90 96 98 92 93
41 41 44 50 53 54 60 59 50 50 57 64 63 64 64 68 66 64 69 78 77 60 77 81 83 82 82 84 83 86 91 93 94 94 94 94 94 93 93 95 93 97 98
43 46 51 52 53 54 57 56 52 53 54 55 57 55 57 61 69 74 78 81 79 73 74 86 86 89 91 88 85 87 89 90 92 88 86 86 85 85 88 91 94 96 98
48 49 50 51 51 54 56 56 52 52 52 50 52 56 68 71 73 72 73 78 78 78 75 76 86 87 90 91 91 90 84 81 81 82 84 83 80 75 70 75 76 75 74
46 46 49 52 53 52 52 52 53 52 49 48 51 52 68 68 67 68 66 69 70 77 72 68 67 79 85 86 88 88 76 69 67 67 69 65 50 64 69 72 68 68 67
45 53 55 56 55 52 48 48 50 50 46 44 48 49 56 66 62 66 68 71 70 67 63 59 60 61 62 59 60 63 65 66 64 66 68 65 62 64 64 64 65 73 56
56 56 59 59 56 48 45 44 51 48 46 43 46 51 57 67 65 66 69 68 65 61 55 55 57 62 58 57 59 60 69 71 67 70 70 68 66 67 71 67 68 61 71
58 59 60 58 54 48 45 44 50 47 48 48 47 54 57 67 63 67 68 68 62 54 52 55 58 61 56 52 68 69 74 75 75 75 66 64 65 64 69 63 75 75 76
61 59 57 54 50 41 41 40 43 52 48 45 52 54 63 58 67 70 67 66 56 52 54 55 59 64 48 72 70 74 80 76 77 79 69 71 66 64 68 71 70 74 88
63 57 54 51 44 43 37 41 46 45 45 48 56 65 69 79 76 76 71 54 55 56 57 59 64 69 72 72 69 73 81 83 81 79 79 65 49 69 73 74 73 75 76
62 55 50 46 41 41 41 42 39 42 42 57 55 62 72 81 83 75 68 61 56 57 62 66 69 76 63 75 76 82 90 88 84 81 80 76 75 77 74 74 82 85 86
56 53 44 42 43 42 40 40 39 38 41 53 61 68 70 68 76 82 83 81 62 65 72 77 83 86 84 81 85 91 98 96 93 82 76 72 75 75 74 89 94 92 89
37 34 31 34 37 39 40 40 38 40 45 60 61 64 79 88 88 89 84 80 70 73 78 88 89 83 89 81 77 85 98 98 92 86 76 73 72 86 90 97 98 97 86
29 30 31 34 36 36 38 40 39 41 52 58 60 64 78 89 88 93 85 73 69 87 94 93 90 85 86 85 72 78 92 91 93 87 83 81 80 82 83 85 96 94 91
30 31 35 37 35 32 40 39 46 53 58 61 66 70 77 86 86 98 94 84 82 88 93 95 95 94 92 70 74 68 66 70 90 90 87 90 92 92 86 89 95 96 97
34 33 37 38 39 41 39 53 59 58 64 70 73 73 71 72 82 90 95 78 85 95 95 93 96 96 93 92 71 70 74 75 87 89 92 92 88 84 93 94 93 97 96
38 37 38 42 46 46 50 59 62 66 71 77 79 77 83 84 83 71 75 86 96 97 94 95 96 97 96 95 90 85 97 85 86 87 92 95 87 94 96 93 93 95 95
38 41 46 48 50 59 65 62 63 70 77 82 81 89 92 92 88 80 78 94 89 90 94 96 96 98 98 93 73 72 81 83 94 91 94 90 90 92 92 90 93 92 94
48 47 50 53 63 70 72 72 73 77 85 87 88 94 94 97 92 92 89 78 82 77 77 74 91 94 75 68 65 66 67 69 84 88 95 96 96 95 89 89 92 92 95

GFSMW_sfc_rhum_030.txt.gz
RH
57 55 60 66 50 53 58 70 77 70 69 72 74 68 63 64 68 64 66 66 64 62 67 70 70 73 75 79 79 84 80 82 89 93 77 85 77 81 80 81 85 88 85
55 55 67 74 76 78 66 64 59 57 55 62 65 65 66 69 67 66 67 65 62 61 53 68 68 72 80 78 81 88 92 95 94 96 97 93 70 84 59 77 88 94 85
63 59 61 76 75 68 65 57 56 56 59 61 62 66 68 70 67 69 69 66 64 63 65 66 71 73 79 81 89 91 88 95 92 86 78 81 93 80 73 58 89 90 90
58 59 62 64 62 63 58 56 55 57 57 61 65 65 69 66 73 75 72 69 65 64 63 65 70 76 86 92 93 85 90 84 81 82 72 79 86 94 86 81 65 83 74
61 63 63 61 62 58 58 60 56 56 61 65 68 72 67 74 76 78 71 67 67 64 62 71 82 88 92 93 89 88 88 90 90 94 88 95 95 97 95 96 92 83 85
62 62 63 61 64 67 66 64 60 61 66 69 72 76 76 76 75 70 70 72 72 70 75 79 87 90 92 92 93 92 91 94 93 93 94 95 95 92 83 90 91 96 91
59 64 64 65 70 72 66 62 59 65 64 67 70 71 72 71 66 64 69 70 72 75 82 86 88 92 91 91 92 93 93 93 95 94 95 95 96 92 91 96 94 93 96
51 59 61 61 62 61 62 62 59 63 68 72 69 71 72 72 70 66 73 79 81 80 81 86 81 82 84 89 91 94 94 92 95 94 96 98 92 94 92 93 98 97 93
52 56 56 58 60 62 62 57 59 65 64 66 64 64 70 69 70 74 81 85 80 68 82 83 83 88 89 89 89 94 93 94 94 95 95 95 92 89 94 88 98 100 98
55 57 57 58 60 63 64 62 60 58 57 57 57 57 64 72 76 81 82 78 78 78 80 84 89 88 90 91 92 94 92 91 93 91 91 90 90 91 94 91 85 90 99
54 59 60 58 57 57 57 60 59 54 52 52 57 69 75 75 76 73 75 77 78 75 78 77 80 90 90 91 93 93 91 88 82 76 73 72 72 76 78 79 75 74 75
60 62 60 60 59 56 54 58 58 53 50 50 52 55 73 74 72 71 71 74 70 71 77 72 61 64 68 71 75 80 71 70 69 69 70 68 51 70 73 79 74 73 69
62 62 61 60 59 56 53 50 56 51 49 49 52 54 57 75 73 71 74 74 76 73 68 60 58 59 62 63 69 69 70 71 71 71 72 72 72 73 75 77 78 76 65
64 61 61 62 61 58 50 48 53 56 55 54 51 55 58 65 74 75 79 79 78 82 62 55 56 60 62 62 62 64 71 74 72 76 77 77 78 78 80 77 86 77 82
64 61 64 65 61 55 48 46 50 56 57 53 55 66 68 68 70 74 80 86 85 78 70 56 56 62 61 55 69 70 74 77 78 79 76 71 69 58 62 68 79 87 83
65 64 60 56 54 48 47 46 49 50 52 57 66 68 69 70 80 84 84 88 91 90 61 56 60 68 53 73 72 74 82 78 79 83 76 75 69 63 65 68 71 71 79
70 64 57 55 53 50 44 46 46 45 50 62 65 72 75 80 82 84 88 88 90 72 64 67 70 75 72 73 73 81 84 87 89 87 82 76 62 72 73 77 76 75 75
63 60 54 48 48 46 45 45 41 43 52 62 69 73 78 81 82 86 90 85 79 89 90 76 80 80 70 78 81 85 96 97 95 92 88 86 80 79 75 77 92 88 88
61 45 40 42 42 40 41 42 42 44 54 66 68 70 78 87 88 88 84 86 92 94 77 82 84 86 87 81 84 89 96 94 91 80 79 74 76 73 78 94 90 96 86
35 33 34 36 39 39 42 45 46 50 63 66 67 70 84 89 95 94 92 98 97 79 83 84 86 78 89 71 73 71 99 98 90 86 77 74 72 83 84 93 96 94 82
35 36 38 40 40 41 45 49 55 63 64 65 68 70 76 89 94 96 97 94 81 87 92 92 90 86 80 81 66 65 88 89 90 85 83 82 82 91 85 84 95 96 88
36 39 42 42 43 44 49 60 66 62 65 69 73 76 78 78 90 89 96 85 85 86 94 96 96 95 94 68 69 67 68 70 94 92 89 94 85 81 89 93 94 88 94
40 40 44 47 49 51 59 64 66 65 71 76 81 84 83 86 84 82 80 80 84 95 97 95 97 97 94 93 75 77 72 76 91 91 93 78 78 86 91 90 93 96 95
43 44 50 54 58 63 66 70 70 73 78 82 82 88 85 88 87 77 78 85 97 97 96 97 97 98 94 96 92 92 96 87 90 93 93 89 85 89 94 91 92 95 96
52 54 59 64 65 72 76 76 76 78 83 84 81 87 88 92 93 87 84 94 89 92 96 97 96 98 98 94 77 81 84 84 91 94 96 90 89 87 86 85 90 93 93
60 64 68 70 75 76 78 78 84 79 88 87 89 95 95 98 94 94 88 78 84 82 83 81 92 95 84 71 68 67 65 62 75 94 99 97 96 95 91 92 91 89 91

GFSMW_sfc_rhum_033.txt.gz
RH
68 64 67 62 66 81 84 84 81 75 70 78 86 81 77 71 74 64 66 64 63 57 61 65 69 76 77 81 81 85 86 92 93 95 84 89 86 83 68 77 94 83 76
63 63 74 79 82 81 72 64 57 59 60 62 68 69 73 74 73 71 68 64 63 62 60 66 67 67 73 79 82 92 94 96 95 92 96 89 69 74 56 72 86 92 86
65 71 74 85 80 70 66 59 58 57 61 65 68 70 72 77 74 72 72 70 67 66 66 68 74 80 86 91 93 94 92 96 93 90 85 86 92 91 78 60 83 90 80
74 77 75 76 71 70 67 62 61 61 62 65 64 64 66 66 78 80 76 70 68 66 68 75 83 90 95 93 94 86 92 93 94 91 83 90 91 97 94 82 76 77 77
65 62 59 60 61 64 68 67 64 65 69 70 72 74 72 79 80 74 68 67 66 68 75 81 85 87 92 92 92 93 93 95 94 96 93 94 94 95 86 87 79 78 86
63 66 64 64 67 72 72 70 66 71 70 72 72 73 77 78 74 70 64 69 72 74 83 83 90 91 92 92 93 93 91 93 95 95 96 97 93 93 90 81 80 89 89
69 72 67 64 65 66 70 70 70 69 69 71 73 74 74 71 66 65 69 72 77 79 80 85 87 92 91 91 92 92 93 93 94 94 97 97 98 93 92 95 91 96 93
59 59 58 62 60 64 68 67 70 71 72 70 72 74 68 71 70 69 78 81 82 81 80 84 85 84 88 91 92 95 95 93 96 95 95 97 97 98 96 88 97 93 94
60 63 63 66 67 67 64 63 68 68 72 68 69 72 75 73 75 75 81 84 83 76 83 85 88 88 90 92 92 95 94 94 94 94 94 96 95 92 95 95 96 97 95
64 66 66 65 66 66 63 65 68 62 58 56 59 58 64 72 76 83 84 86 83 80 84 88 91 90 92 92 93 95 94 94 95 93 89 82 84 84 86 88 91 94 95
68 63 61 58 58 59 60 66 61 56 57 56 58 62 70 77 80 83 83 83 81 81 82 79 78 81 86 87 92 90 91 83 74 72 72 72 71 74 76 80 82 85 87
62 62 59 59 59 59 57 61 61 60 56 55 58 62 72 78 82 82 78 76 79 75 81 80 69 62 67 68 69 71 70 68 70 72 75 74 58 76 78 83 83 83 84
68 64 60 62 61 57 53 51 54 62 58 58 62 60 61 64 74 77 78 78 82 84 86 82 82 73 65 63 67 69 70 71 73 75 78 78 79 81 83 81 84 86 76
66 65 63 63 61 58 52 53 55 61 61 58 59 66 71 71 73 77 81 83 86 90 90 90 81 72 65 64 65 66 70 74 74 78 80 81 79 81 82 77 88 81 93
70 66 63 62 60 61 54 51 53 53 55 60 66 72 75 74 75 77 84 87 92 91 93 94 87 66 64 57 67 69 75 78 80 80 77 77 73 67 66 62 74 80 81
65 62 60 57 55 48 48 47 48 48 54 66 67 73 77 80 84 87 88 91 93 94 93 82 73 75 56 74 72 77 85 81 82 87 83 80 77 77 69 68 69 72 84
71 70 59 51 48 48 45 44 46 48 52 64 68 75 80 83 84 85 89 93 96 91 84 86 77 74 73 72 75 81 92 91 95 95 91 79 64 72 74 76 76 76 76
71 51 48 45 47 47 42 46 45 48 58 66 72 75 76 86 88 91 92 89 94 95 99 91 81 78 75 80 84 84 92 92 90 82 82 83 80 78 72 80 90 87 76
56 41 41 43 42 40 41 46 49 49 61 69 71 73 81 90 91 96 93 92 99 98 88 83 78 85 87 70 73 79 93 88 85 77 78 73 77 79 85 94 92 86 80
36 36 38 39 42 43 49 50 50 60 67 69 70 74 78 87 93 97 94 95 88 88 86 80 84 76 83 70 66 69 98 99 89 83 76 78 76 86 88 95 96 94 83
39 41 43 45 47 48 51 52 62 67 67 70 73 75 77 83 88 92 83 99 97 87 93 92 91 83 80 80 64 66 93 93 89 87 87 84 84 74 85 89 96 96 94
43 44 47 50 52 54 57 65 71 68 69 74 78 80 84 87 87 92 93 87 89 86 93 96 96 95 95 70 72 71 70 72 96 93 91 93 72 80 86 89 91 90 95
44 46 52 56 60 61 66 71 73 74 77 82 81 85 82 86 89 78 77 82 85 95 96 97 98 97 93 93 76 79 76 75 96 92 81 73 74 78 84 85 90 93 94
52 54 60 66 69 68 73 79 80 80 82 81 82 79 81 83 91 72 74 86 97 98 97 98 98 98 94 96 93 93 98 83 87 92 95 92 86 85 85 84 89 92 95
59 63 70 74 76 80 82 82 83 86 86 86 81 86 88 89 94 86 83 90 90 93 97 97 96 100 99 94 82 79 92 92 91 95 97 97 92 90 87 87 86 87 87
66 72 75 79 88 86 88 89 88 84 87 96 93 92 95 96 93 93 85 76 85 83 83 83 94 97 86 79 68 66 64 63 69 95 100 100 100 98 93 93 92 90 90

GFSMW_sfc_rhum_036.txt.gz
RH
74 75 78 81 84 89 87 93 97 95 89 91 86 82 86 75 72 68 65 66 65 65 67 68 69 75 76 80 82 89 91 93 94 95 82 89 88 73 65 83 87 79 72
74 76 83 89 87 87 87 80 68 65 63 67 71 71 75 77 74 74 72 70 69 66 62 72 77 81 86 89 93 94 95 96 94 91 92 82 73 75 65 67 78 87 81
78 84 82 85 80 67 63 59 60 60 64 69 74 78 79 79 76 76 74 72 68 68 71 76 82 88 91 93 94 93 91 96 93 92 86 88 90 93 77 73 81 87 82
78 78 74 72 69 70 68 64 62 63 65 69 67 67 71 74 85 81 77 71 67 70 76 80 85 86 91 87 93 88 94 92 93 91 83 92 95 98 95 79 73 82 74
79 72 68 63 72 73 75 73 68 68 72 72 72 78 82 87 84 78 71 70 68 72 78 80 83 85 91 93 92 92 92 95 95 97 96 94 94 94 96 89 70 69 77
76 70 66 67 75 76 76 74 70 74 72 74 74 76 80 81 76 73 71 72 74 74 80 81 89 90 92 92 93 93 91 93 95 97 97 98 93 82 89 88 86 98 86
71 72 69 72 72 65 66 70 72 71 72 74 76 78 78 72 67 67 70 70 75 79 80 83 88 93 92 92 93 93 94 94 95 95 97 97 98 98 93 98 96 97 91
70 74 67 67 72 71 72 72 71 73 72 71 74 74 70 71 69 68 75 78 81 81 79 82 89 87 88 91 93 96 96 95 97 95 96 96 96 96 97 95 98 92 92
62 70 73 72 72 69 65 72 72 75 74 69 73 76 73 72 75 76 80 85 84 78 84 87 90 90 91 92 94 97 94 94 95 95 94 97 95 86 89 87 94 95 93
72 72 70 70 70 66 65 69 75 68 70 65 66 62 67 72 79 81 80 85 88 86 85 89 91 92 91 93 94 95 94 95 95 93 89 79 81 82 86 82 85 90 91
71 68 65 63 62 60 59 68 65 60 59 61 63 67 69 77 82 85 87 87 86 85 85 86 86 78 82 85 88 88 84 90 76 71 71 73 74 78 78 80 81 82 84
70 67 65 63 62 60 57 64 64 61 65 62 65 66 67 72 79 82 83 85 85 83 83 84 81 81 76 74 74 75 70 71 70 71 73 75 62 78 78 78 79 78 81
72 68 64 63 62 57 52 50 60 66 62 62 62 63 70 72 73 76 80 82 85 88 90 89 95 94 90 79 72 69 72 70 69 74 78 78 80 81 78 78 80 82 75
68 68 67 68 61 59 52 55 55 57 55 56 64 72 74 77 79 80 81 84 86 92 92 93 93 87 81 73 68 65 68 73 74 78 80 81 82 80 77 74 77 72 82
71 69 66 62 55 54 53 50 50 51 55 60 67 73 78 81 83 86 87 88 90 92 93 92 92 91 71 60 66 67 74 80 83 82 80 80 79 74 73 72 76 82 79
68 66 58 52 48 46 47 47 46 49 54 65 69 75 81 82 83 87 88 92 92 95 94 74 74 77 56 70 74 86 95 91 88 80 76 83 74 78 70 71 70 69 77
69 65 51 48 48 47 44 44 47 52 54 67 72 77 80 79 85 89 93 94 93 93 89 87 81 80 82 79 82 82 81 83 85 80 76 70 59 72 73 76 74 74 76
70 58 51 48 49 47 45 49 49 53 59 67 71 73 77 84 91 92 95 94 91 98 99 97 82 81 80 81 76 78 86 85 80 74 76 77 78 76 74 82 89 82 76
67 45 44 45 44 43 46 50 51 51 61 71 73 74 81 86 90 92 96 86 96 97 92 84 83 82 79 67 67 71 88 85 81 74 74 73 80 80 86 90 90 85 76
39 38 42 42 45 47 51 53 52 62 70 72 74 78 80 82 86 92 94 83 92 98 83 76 86 74 81 69 64 69 93 97 88 84 76 80 75 74 74 95 95 93 81
38 41 45 46 49 52 55 58 67 70 71 73 78 81 81 88 91 90 83 91 98 95 91 92 91 82 79 80 66 67 93 92 90 88 86 84 78 73 76 82 94 95 92
42 44 48 52 57 59 64 69 76 74 76 80 84 82 79 81 87 93 96 82 92 86 93 96 96 95 94 73 76 71 74 72 98 94 89 92 70 70 73 79 90 89 92
45 50 55 58 64 68 73 79 80 82 84 86 86 80 78 74 83 88 78 80 84 95 96 98 99 96 92 93 77 80 79 72 96 88 79 74 73 75 80 75 80 90 91
52 56 61 68 72 78 82 86 86 89 91 90 82 80 81 76 89 90 75 78 95 98 98 98 98 98 95 96 93 93 98 81 85 91 92 93 88 88 88 85 84 88 90
58 63 71 75 79 87 87 88 91 93 92 86 85 87 94 86 92 91 87 90 89 93 96 96 97 100 100 95 87 82 95 95 92 96 97 95 94 92 90 88 85 86 82
64 71 74 81 88 91 92 90 90 91 94 91 88 92 98 94 92 93 88 79 84 83 84 85 97 97 88 82 74 63 64 62 69 91 100 100 100 100 96 96 92 86 84

GFSMW_sfc_rhum_042.txt.gz
RH
46 50 56 57 59 74 72 72 78 91 92 67 63 51 53 45 42 38 42 42 41 43 45 35 35 33 33 39 40 37 37 33 36 40 27 25 26 41 35 30 31 32 33
50 58 59 60 62 68 69 68 61 64 57 47 40 38 38 36 35 38 44 42 44 42 34 37 32 36 33 39 42 44 39 33 33 46 40 30 25 22 32 31 32 38 34
53 60 61 62 65 65 62 53 50 49 43 40 39 40 42 42 39 40 38 40 40 36 36 37 38 39 37 36 43 42 45 40 36 39 45 45 37 34 30 35 32 38 35
46 46 44 49 50 51 45 37 39 39 42 44 38 40 33 33 39 40 38 36 38 35 34 37 40 43 42 44 42 35 47 45 43 36 32 42 46 62 59 39 33 31 31
40 35 32 34 33 41 41 40 38 37 41 42 41 40 42 42 41 41 45 41 38 37 35 37 43 44 42 45 50 51 50 44 46 46 48 50 45 46 56 62 39 29 28
36 30 31 32 35 45 46 43 39 40 43 44 46 47 48 43 39 38 36 33 32 32 36 37 42 44 46 48 48 51 53 53 53 54 55 55 56 47 54 60 52 45 34
36 34 35 35 36 43 46 46 40 42 44 46 45 45 44 40 36 34 31 35 31 33 37 42 45 42 44 48 50 52 52 54 56 54 53 57 61 54 61 67 56 42 33
35 34 34 35 39 43 42 41 40 42 42 42 44 42 35 32 32 35 39 39 39 41 47 49 46 43 43 46 50 52 55 58 56 60 55 51 45 46 48 49 49 50 38
36 35 37 39 40 42 47 46 42 40 42 44 46 47 41 40 39 42 45 43 47 38 36 38 37 37 41 45 51 56 55 54 58 62 58 47 42 40 37 38 41 61 63
36 37 38 44 43 41 43 47 41 42 45 44 44 39 39 38 42 45 45 40 34 32 35 36 37 39 41 44 50 52 46 52 58 48 47 42 37 39 40 35 37 42 54
38 40 41 44 41 38 39 41 42 40 40 41 43 42 36 37 37 33 32 32 35 34 36 37 41 42 44 48 57 58 50 61 59 49 48 47 44 45 40 38 37 38 38
38 40 41 41 37 36 36 38 40 40 40 42 38 33 31 31 30 30 32 37 38 39 39 40 42 44 48 64 68 71 72 61 49 47 47 46 41 47 41 38 40 40 39
40 39 38 37 35 35 36 36 40 37 36 29 26 28 30 30 31 34 38 39 41 41 42 43 48 48 56 57 68 68 51 47 46 47 50 50 47 45 41 42 40 39 36
39 38 37 35 34 33 35 36 38 34 27 23 23 27 31 35 36 40 41 44 44 46 47 48 49 68 62 54 52 44 47 49 47 51 50 48 47 46 45 42 42 38 42
39 37 36 36 34 34 36 36 30 27 24 23 24 28 38 42 42 42 45 46 49 49 48 52 59 63 48 40 51 51 53 51 48 46 39 39 44 55 56 48 47 49 49
39 37 36 35 34 35 32 29 26 26 28 26 28 32 42 42 42 46 49 49 50 50 50 55 57 59 50 86 78 68 46 44 41 40 37 36 43 44 58 62 63 62 59
40 40 37 35 34 32 26 24 25 28 29 29 30 39 43 41 43 43 45 48 52 55 63 62 72 71 63 73 74 69 44 44 42 40 38 36 32 49 46 55 63 69 80
41 39 36 36 32 26 25 28 25 28 30 30 34 38 41 42 42 46 48 51 54 65 66 70 67 60 55 68 65 64 48 47 45 43 43 43 44 46 59 58 62 58 57
39 36 32 30 26 27 26 27 27 28 29 33 36 37 42 44 45 48 51 54 64 65 71 65 65 60 52 66 62 63 54 54 53 46 44 46 46 59 69 69 74 65 53
36 32 29 30 28 32 29 29 27 28 32 37 39 39 42 46 48 50 51 56 60 61 62 71 62 64 58 65 63 61 62 79 61 50 45 57 56 66 68 75 77 78 61
32 26 26 29 29 32 33 31 26 33 35 42 44 42 42 46 48 49 49 54 61 63 73 81 68 61 61 58 66 64 71 68 65 56 51 50 62 65 66 67 70 77 64
27 30 33 31 31 32 33 25 29 30 42 44 44 44 46 46 45 52 52 54 58 61 68 98 85 69 66 71 67 69 68 69 77 67 56 62 64 66 66 62 69 68 73
36 34 33 35 35 33 35 36 35 41 43 46 48 50 49 46 46 54 58 56 56 66 72 70 74 67 63 63 77 73 70 76 76 67 66 67 65 61 56 56 63 66 63
46 54 39 34 34 39 42 40 43 46 44 50 52 51 51 49 47 51 56 55 61 65 62 65 69 66 65 66 65 66 67 72 68 64 60 64 72 64 60 55 52 57 58
52 42 37 36 35 37 43 42 43 49 51 54 53 54 54 56 54 54 55 56 56 61 61 63 70 89 87 79 74 72 70 74 67 78 72 64 59 55 50 54 54 54 50
41 43 46 45 42 42 41 42 45 48 55 57 55 58 59 60 59 60 56 72 75 79 83 83 83 83 78 83 81 76 76 68 64 68 72 76 79 71 57 59 58 56 55

GFSMW_sfc_rhum_045.txt.gz
RH
29 36 36 36 32 44 54 67 77 76 65 61 60 60 54 44 41 38 41 41 40 42 45 35 35 37 33 37 40 39 41 36 34 32 32 32 34 32 27 28 30 30 30
36 39 43 45 48 60 64 67 62 62 57 48 44 41 38 35 34 37 42 41 43 39 34 40 35 37 35 38 41 45 42 39 38 40 37 40 34 28 28 30 30 37 28
38 45 48 52 58 64 68 59 52 47 41 36 33 34 35 38 37 39 38 40 39 35 35 36 37 39 37 37 43 43 44 41 39 41 39 42 44 38 32 36 33 41 38
38 43 46 60 63 60 52 43 38 34 33 34 34 38 33 37 42 35 34 37 37 35 33 33 37 42 40 43 41 35 45 47 44 38 32 45 44 50 54 37 34 35 31
40 41 42 42 40 43 39 34 32 32 36 37 35 38 37 37 35 36 42 41 38 34 31 34 38 41 39 42 46 49 51 48 54 45 45 49 47 48 53 51 43 37 32
36 31 31 32 34 40 39 37 34 33 37 39 40 40 43 38 36 39 38 33 29 28 30 30 36 40 40 40 42 47 46 56 54 48 53 57 58 50 56 60 60 56 42
33 29 28 27 33 38 40 38 35 36 39 42 43 43 42 39 36 34 32 31 30 30 33 39 41 38 39 39 40 44 50 53 55 59 64 49 50 51 52 63 64 54 36
32 28 28 28 32 39 41 39 36 39 41 42 40 40 36 31 31 31 34 36 35 36 39 41 39 35 35 36 41 42 48 53 64 65 56 50 52 46 43 48 49 56 44
32 28 29 31 33 37 40 41 38 39 39 40 40 38 37 34 35 36 38 38 40 33 32 33 35 35 36 37 40 42 46 54 57 57 58 60 47 43 45 44 48 63 69
30 28 28 33 34 36 39 43 39 38 37 38 37 34 35 36 36 39 40 37 33 31 32 34 35 36 37 38 40 41 44 56 51 48 56 53 46 46 48 47 42 44 45
30 29 30 33 36 38 40 43 38 37 35 34 39 44 39 34 36 34 30 29 32 32 33 33 35 36 37 37 42 51 52 60 53 55 53 53 50 52 51 44 39 38 39
28 29 31 35 38 39 38 39 38 34 34 37 48 39 35 32 30 28 27 32 34 36 35 35 36 37 37 39 53 66 54 57 56 52 53 51 40 48 44 38 42 40 38
27 30 34 37 37 36 36 36 35 34 38 45 36 30 29 29 28 27 32 33 35 37 37 38 42 41 45 52 59 56 54 59 52 51 52 49 44 42 40 41 41 39 32
29 32 34 35 34 34 35 34 35 40 41 30 24 25 28 28 29 32 35 37 38 40 41 42 43 48 55 50 53 54 51 54 52 52 47 40 40 42 46 42 44 40 41
33 33 34 34 33 33 34 33 37 33 32 24 23 25 26 32 34 37 38 40 42 41 42 42 43 47 48 44 53 51 56 54 48 40 36 38 42 47 50 45 48 49 48
32 32 32 32 33 32 33 35 32 29 24 25 25 24 28 32 36 38 41 41 41 42 43 45 49 57 49 81 74 66 50 44 39 40 39 36 45 44 58 62 60 61 57
31 33 32 33 33 33 32 29 28 25 27 27 24 25 32 34 35 34 36 41 45 45 48 54 59 62 64 74 70 65 48 45 44 42 41 37 30 48 44 55 60 61 65
32 34 33 33 31 29 26 26 25 29 29 26 24 26 32 34 34 36 39 43 44 49 58 59 64 64 65 73 65 64 52 46 46 45 43 42 43 49 60 54 55 55 53
32 33 32 31 29 25 25 31 28 26 24 25 26 27 30 34 36 38 42 44 47 57 64 61 68 65 67 70 64 62 54 52 51 46 43 44 44 64 65 60 67 60 53
32 32 30 28 26 27 27 31 30 25 26 25 29 30 32 35 37 41 44 45 46 53 60 66 62 72 71 72 66 61 63 71 61 50 45 62 56 63 64 72 71 71 53
32 29 27 26 26 32 42 38 26 22 24 30 32 34 33 35 38 43 43 44 49 60 77 80 70 69 72 70 69 65 66 68 65 59 52 49 64 66 62 64 69 75 62
29 26 27 29 40 38 31 22 20 24 28 34 36 35 36 36 38 46 46 47 54 68 72 98 83 67 69 74 73 71 71 66 74 68 58 61 68 65 64 61 60 62 69
27 30 38 53 43 34 33 34 30 31 35 38 39 39 41 42 41 44 44 54 58 64 74 71 72 70 65 69 78 73 74 72 80 67 66 68 64 59 59 50 58 66 61
46 55 58 50 36 29 33 35 39 41 39 43 44 45 46 46 46 42 43 56 65 69 66 70 68 62 62 68 64 84 79 76 81 77 68 67 70 69 71 64 54 56 59
60 46 38 42 42 33 36 37 36 41 44 46 47 48 51 52 51 46 50 61 62 66 67 70 65 90 87 75 78 78 75 79 77 78 72 67 61 61 56 54 52 54 51
57 63 49 41 36 34 35 35 34 38 44 50 50 56 58 56 51 51 58 66 74 76 75 75 82 84 75 76 81 78 75 73 71 72 73 76 78 76 64 62 58 57 56